Skip Page Navigation
NASA JPL Caltech
NASA Logo - Jet Propulsion Laboratory + View the NASA Portal
+ Near-Earth Object (NEO) Program
Search JPL
JPL Home Earth Solar System Stars & Galaxies Technology
JPL Solar System Dynamics
BODIES ORBITS EPHEMERIDES TOOLS PHYSICAL DATA DISCOVERY FAQ SITE MAP
JPL Small-Body Database Browser
Search: [ help ]  
100480 (1996 UK)
Classification: Mars-crossing Asteroid          SPK-ID: 2100480
Ephemeris | Orbit Diagram | Orbital Elements | Physical Parameters | Discovery Circumstances | Close-Approach Data ]

[ show orbit diagram ]
Orbital Elements at Epoch 2457000.5 (2014-Dec-09.0) TDB
Reference: JPL 5 (heliocentric ecliptic J2000)
 Element Value Uncertainty (1-sigma)   Units 
e .4631899144252941 1.1445e-07  
a 2.685742839197386 3.6378e-08 AU
q 1.441733843341202 3.1239e-07 AU
i 10.73479056683724 2.0393e-05 deg
node 210.1349086369447 4.3568e-05 deg
peri 135.0438224288048 5.1735e-05 deg
M 58.05842575234946 3.873e-05 deg
tp 2456741.226684322194
(2014-Mar-24.72668432)
0.00016803 JED
period 1607.663184705506
4.40
3.2663e-05
8.943e-08
d
yr
n .2239275013727116 4.5496e-09 deg/d
Q 3.929751835053569 5.3228e-08 AU
  Orbit Determination Parameters
   # obs. used (total)      248  
   data-arc span      6129 days (16.78 yr)  
   first obs. used      1996-10-16  
   last obs. used      2013-07-28  
   planetary ephem.      DE431  
   SB-pert. ephem.      SB431-BIG16  
   condition code      0  
   fit RMS      .61268  
   data source      ORB  
   producer      Otto Matic  
   solution date      2014-Jun-10 20:07:22  

Additional Information
 Earth MOID = .461381 AU 
 T_jup = 3.189 
[ show covariance matrix ]

Ephemeris | Orbit Diagram | Orbital Elements | Physical Parameters | Discovery Circumstances | Close-Approach Data ]

Physical Parameter Table
Parameter Symbol Value Units Sigma Reference Notes
absolute magnitude H 16.0 mag n/a MPO267994  
SMASSII spectral type spec_B Sq   n/a EAR-A-5-DDR-TAXONOMY-V4.0 based on a high-resolution spectrum by Xu et al. (1995) or Bus and Binzel (2002)

100480 (1996 UK)          Discovered 1996-Oct-16 by Shimizu, Y., Urata, T. at Nachi-Katsuura (905)
Reference: 20051019/Numbers.arcLast Updated: 2005-10-26

[ show close-approach data ]
Ephemeris | Orbit Diagram | Orbital Elements | Physical Parameters | Discovery Circumstances | Close-Approach Data ]
ABOUT SSD CREDITS/AWARDS PRIVACY/COPYRIGHT GLOSSARY LINKS
FirstGov 2014-Nov-22 23:45 UT
(server date/time)  
NASA Home Page
Site Manager:   Donald K. Yeomans
Webmaster  Alan B. Chamberlin